^^

Weather Underground History

Daily Summary for June 27, 2019 Units:  Metric    English   Both
Daily Weekly Monthly Yearly
  High: Low: Average:
Temperature: 17 °C 8 °C 11.1 °C
Dew Point: 10 °C 6 °C 7.6 °C
Humidity: 91% 60% 79%
Wind Speed: 16km/h 0km/h 8.2km/h
Wind Gust: 35km/h - -
Wind- - West
Pressure: 1009.2 hPa 1006.3 hPa -
Precipitation: 0.5 mm    
 
 
Tabular Data for June 27, 2019
Time Temperature Dew Point Pressure Wind Wind Speed Wind Gust Humidity Rainfall Rate (Hourly) solar
00:04 9 °C 7 °C 1009.2 hPa WNW 5 km/h 13 km/h 83% 0.0 mm 0 W/m2
00:09 9 °C 7 °C 1009.1 hPa West 5 km/h 10 km/h 83% 0.0 mm 0 W/m2
00:14 9 °C 7 °C 1009.1 hPa West 5 km/h 10 km/h 83% 0.0 mm 0 W/m2
00:19 9 °C 7 °C 1009.1 hPa West 2 km/h 10 km/h 83% 0.0 mm 0 W/m2
00:24 9 °C 7 °C 1009.1 hPa West 4 km/h 8 km/h 83% 0.0 mm 0 W/m2
00:29 9 °C 7 °C 1009.1 hPa West 5 km/h 11 km/h 84% 0.0 mm 0 W/m2
00:34 9 °C 7 °C 1009.1 hPa West 7 km/h 11 km/h 84% 0.0 mm 0 W/m2
00:39 9 °C 7 °C 1009.0 hPa West 6 km/h 16 km/h 84% 0.0 mm 0 W/m2
00:44 9 °C 7 °C 1008.9 hPa West 6 km/h 16 km/h 84% 0.0 mm 0 W/m2
00:49 9 °C 7 °C 1008.9 hPa West 5 km/h 11 km/h 83% 0.0 mm 0 W/m2
00:54 9 °C 7 °C 1008.8 hPa West 6 km/h 11 km/h 83% 0.0 mm 0 W/m2
00:59 9 °C 7 °C 1008.8 hPa West 5 km/h 10 km/h 83% 0.0 mm 0 W/m2
01:04 9 °C 7 °C 1008.8 hPa West 5 km/h 11 km/h 83% 0.0 mm 0 W/m2
01:09 9 °C 7 °C 1008.9 hPa West 6 km/h 11 km/h 84% 0.0 mm 0 W/m2
01:14 9 °C 7 °C 1008.9 hPa West 7 km/h 11 km/h 84% 0.0 mm 0 W/m2
01:19 10 °C 7 °C 1008.8 hPa West 8 km/h 14 km/h 85% 0.0 mm 0 W/m2
01:24 10 °C 7 °C 1008.8 hPa WSW 9 km/h 16 km/h 84% 0.0 mm 0 W/m2
01:29 10 °C 7 °C 1008.7 hPa West 9 km/h 13 km/h 84% 0.0 mm 0 W/m2
01:34 10 °C 7 °C 1008.7 hPa WSW 8 km/h 13 km/h 84% 0.0 mm 0 W/m2
01:39 10 °C 7 °C 1008.6 hPa West 9 km/h 16 km/h 84% 0.0 mm 0 W/m2
01:44 10 °C 7 °C 1008.6 hPa West 8 km/h 16 km/h 84% 0.0 mm 0 W/m2
01:49 10 °C 7 °C 1008.5 hPa West 9 km/h 13 km/h 85% 0.0 mm 0 W/m2
01:54 10 °C 7 °C 1008.5 hPa West 7 km/h 13 km/h 85% 0.0 mm 0 W/m2
01:59 10 °C 8 °C 1008.5 hPa WNW 8 km/h 18 km/h 85% 0.0 mm 0 W/m2
02:04 10 °C 8 °C 1008.4 hPa West 8 km/h 19 km/h 85% 0.0 mm 0 W/m2
02:09 10 °C 8 °C 1008.3 hPa West 9 km/h 19 km/h 84% 0.0 mm 0 W/m2
02:14 10 °C 7 °C 1008.2 hPa West 8 km/h 14 km/h 84% 0.0 mm 0 W/m2
02:19 10 °C 7 °C 1008.1 hPa West 9 km/h 16 km/h 84% 0.0 mm 0 W/m2
02:24 10 °C 7 °C 1008.1 hPa West 9 km/h 21 km/h 84% 0.0 mm 0 W/m2
02:29 10 °C 7 °C 1008.1 hPa West 9 km/h 19 km/h 84% 0.0 mm 0 W/m2
02:34 10 °C 7 °C 1008.1 hPa West 8 km/h 14 km/h 83% 0.0 mm 0 W/m2
02:39 10 °C 7 °C 1008.1 hPa West 8 km/h 14 km/h 83% 0.0 mm 0 W/m2
02:44 10 °C 7 °C 1008.1 hPa West 8 km/h 16 km/h 84% 0.0 mm 0 W/m2
02:49 10 °C 7 °C 1008.1 hPa WSW 9 km/h 14 km/h 84% 0.0 mm 0 W/m2
02:54 9 °C 7 °C 1008.1 hPa WSW 8 km/h 13 km/h 84% 0.0 mm 0 W/m2
02:59 9 °C 7 °C 1008.2 hPa WSW 7 km/h 13 km/h 84% 0.0 mm 0 W/m2
03:04 9 °C 7 °C 1008.1 hPa WSW 6 km/h 13 km/h 84% 0.0 mm 0 W/m2
03:09 9 °C 7 °C 1008.1 hPa WSW 5 km/h 10 km/h 85% 0.0 mm 0 W/m2
03:14 9 °C 7 °C 1008.1 hPa WSW 5 km/h 10 km/h 85% 0.0 mm 0 W/m2
03:19 9 °C 7 °C 1008.1 hPa WSW 4 km/h 8 km/h 86% 0.0 mm 0 W/m2
03:24 8 °C 7 °C 1008.1 hPa WSW 5 km/h 10 km/h 86% 0.0 mm 0 W/m2
03:29 8 °C 7 °C 1008.1 hPa WSW 5 km/h 10 km/h 87% 0.0 mm 0 W/m2
03:34 8 °C 6 °C 1008.0 hPa WSW 5 km/h 8 km/h 87% 0.0 mm 0 W/m2
03:39 8 °C 6 °C 1008.0 hPa WSW 5 km/h 11 km/h 87% 0.0 mm 0 W/m2
03:44 8 °C 7 °C 1007.9 hPa WSW 5 km/h 11 km/h 88% 0.0 mm 0 W/m2
03:49 8 °C 6 °C 1007.9 hPa WSW 6 km/h 11 km/h 88% 0.0 mm 0 W/m2
03:54 8 °C 6 °C 1007.8 hPa WSW 6 km/h 11 km/h 88% 0.0 mm 0 W/m2
03:59 8 °C 6 °C 1007.9 hPa WSW 6 km/h 11 km/h 88% 0.0 mm 0 W/m2
04:04 8 °C 6 °C 1007.8 hPa West 7 km/h 11 km/h 88% 0.0 mm 0 W/m2
04:09 8 °C 7 °C 1007.8 hPa West 9 km/h 16 km/h 89% 0.0 mm 0 W/m2
04:14 8 °C 7 °C 1007.8 hPa West 8 km/h 16 km/h 88% 0.0 mm 0 W/m2
04:19 9 °C 7 °C 1007.8 hPa West 8 km/h 14 km/h 87% 0.0 mm 0 W/m2
04:24 9 °C 7 °C 1007.8 hPa WSW 9 km/h 14 km/h 87% 0.0 mm 0 W/m2
04:29 9 °C 7 °C 1007.8 hPa WSW 8 km/h 11 km/h 87% 0.0 mm 0 W/m2
04:34 9 °C 7 °C 1007.7 hPa WSW 7 km/h 13 km/h 86% 0.0 mm 0 W/m2
04:39 8 °C 6 °C 1007.7 hPa WSW 6 km/h 10 km/h 86% 0.0 mm 0 W/m2
04:44 8 °C 7 °C 1007.6 hPa WSW 8 km/h 14 km/h 87% 0.0 mm 0 W/m2
04:49 8 °C 6 °C 1007.6 hPa WSW 6 km/h 14 km/h 87% 0.0 mm 0 W/m2
04:54 8 °C 6 °C 1007.7 hPa West 7 km/h 11 km/h 87% 0.0 mm 0 W/m2
04:59 8 °C 6 °C 1007.7 hPa WSW 7 km/h 10 km/h 88% 0.0 mm 0 W/m2
05:04 8 °C 6 °C 1007.6 hPa WSW 6 km/h 11 km/h 88% 0.0 mm 5 W/m2
05:09 8 °C 6 °C 1007.7 hPa West 6 km/h 11 km/h 88% 0.0 mm 5 W/m2
05:14 8 °C 6 °C 1007.8 hPa West 5 km/h 10 km/h 88% 0.0 mm 5 W/m2
05:19 8 °C 7 °C 1007.8 hPa WSW 8 km/h 13 km/h 89% 0.0 mm 7 W/m2
05:24 8 °C 7 °C 1007.8 hPa WSW 10 km/h 14 km/h 89% 0.0 mm 12 W/m2
05:29 8 °C 7 °C 1007.8 hPa WSW 9 km/h 14 km/h 89% 0.0 mm 16 W/m2
05:34 8 °C 7 °C 1007.8 hPa WSW 9 km/h 16 km/h 89% 0.0 mm 19 W/m2
05:39 8 °C 7 °C 1007.7 hPa WSW 9 km/h 14 km/h 89% 0.0 mm 19 W/m2
05:44 8 °C 7 °C 1007.7 hPa WSW 9 km/h 13 km/h 89% 0.0 mm 21 W/m2
05:49 8 °C 7 °C 1007.6 hPa SW 10 km/h 18 km/h 89% 0.0 mm 26 W/m2
05:54 9 °C 7 °C 1007.6 hPa WSW 9 km/h 16 km/h 89% 0.0 mm 39 W/m2
05:59 9 °C 7 °C 1007.6 hPa WSW 9 km/h 14 km/h 88% 0.0 mm 42 W/m2
06:04 9 °C 7 °C 1007.7 hPa WSW 9 km/h 16 km/h 88% 0.0 mm 47 W/m2
06:09 9 °C 7 °C 1007.7 hPa WSW 9 km/h 18 km/h 88% 0.0 mm 53 W/m2
06:14 9 °C 7 °C 1007.7 hPa WSW 9 km/h 16 km/h 88% 0.0 mm 54 W/m2
06:19 9 °C 7 °C 1007.7 hPa WSW 11 km/h 16 km/h 88% 0.0 mm 63 W/m2
06:24 9 °C 7 °C 1007.7 hPa WSW 13 km/h 19 km/h 87% 0.0 mm 65 W/m2
06:29 9 °C 7 °C 1007.6 hPa WSW 11 km/h 18 km/h 87% 0.0 mm 70 W/m2
06:34 9 °C 7 °C 1007.6 hPa WSW 12 km/h 21 km/h 87% 0.0 mm 72 W/m2
06:39 9 °C 7 °C 1007.8 hPa WSW 11 km/h 26 km/h 87% 0.0 mm 69 W/m2
06:44 9 °C 7 °C 1007.7 hPa WSW 12 km/h 24 km/h 87% 0.0 mm 58 W/m2
06:49 9 °C 7 °C 1007.6 hPa WSW 13 km/h 21 km/h 87% 0.0 mm 70 W/m2
06:54 9 °C 7 °C 1007.6 hPa WSW 12 km/h 21 km/h 87% 0.0 mm 72 W/m2
06:59 9 °C 7 °C 1007.6 hPa WSW 13 km/h 19 km/h 88% 0.0 mm 77 W/m2
07:04 9 °C 8 °C 1007.6 hPa WSW 11 km/h 19 km/h 88% 0.0 mm 72 W/m2
07:09 9 °C 8 °C 1007.7 hPa WSW 11 km/h 19 km/h 88% 0.0 mm 70 W/m2
07:14 9 °C 7 °C 1007.8 hPa WSW 11 km/h 21 km/h 87% 0.0 mm 56 W/m2
07:19 9 °C 7 °C 1007.6 hPa WSW 13 km/h 23 km/h 87% 0.0 mm 67 W/m2
07:24 9 °C 7 °C 1007.6 hPa WSW 15 km/h 27 km/h 87% 0.0 mm 67 W/m2
07:29 9 °C 8 °C 1007.7 hPa WSW 12 km/h 27 km/h 87% 0.0 mm 70 W/m2
07:34 9 °C 8 °C 1007.8 hPa WSW 11 km/h 18 km/h 87% 0.0 mm 77 W/m2
07:39 9 °C 8 °C 1007.8 hPa WSW 13 km/h 21 km/h 87% 0.0 mm 102 W/m2
07:44 10 °C 8 °C 1007.9 hPa WSW 11 km/h 19 km/h 87% 0.0 mm 134 W/m2
07:49 10 °C 8 °C 1007.9 hPa WSW 9 km/h 18 km/h 87% 0.0 mm 134 W/m2
07:54 10 °C 8 °C 1007.9 hPa WSW 8 km/h 14 km/h 87% 0.0 mm 132 W/m2
07:59 10 °C 8 °C 1007.9 hPa WSW 10 km/h 19 km/h 86% 0.0 mm 158 W/m2
08:04 10 °C 8 °C 1007.9 hPa WSW 9 km/h 19 km/h 86% 0.0 mm 216 W/m2
08:09 11 °C 8 °C 1007.9 hPa WSW 10 km/h 18 km/h 86% 0.0 mm 294 W/m2
08:14 11 °C 8 °C 1008.0 hPa WSW 11 km/h 24 km/h 85% 0.0 mm 192 W/m2
08:19 11 °C 8 °C 1007.9 hPa WSW 12 km/h 26 km/h 85% 0.0 mm 302 W/m2
08:24 11 °C 8 °C 1007.9 hPa WSW 8 km/h 14 km/h 85% 0.0 mm 367 W/m2
08:29 11 °C 8 °C 1007.9 hPa WSW 12 km/h 21 km/h 84% 0.0 mm 367 W/m2
08:34 11 °C 8 °C 1007.9 hPa WSW 11 km/h 16 km/h 83% 0.0 mm 176 W/m2
08:39 11 °C 8 °C 1007.9 hPa WSW 11 km/h 19 km/h 83% 0.0 mm 290 W/m2
08:44 11 °C 8 °C 1007.9 hPa WSW 12 km/h 23 km/h 83% 0.0 mm 290 W/m2
08:49 11 °C 8 °C 1007.8 hPa WSW 11 km/h 23 km/h 83% 0.0 mm 290 W/m2
08:54 11 °C 8 °C 1007.8 hPa WSW 12 km/h 18 km/h 83% 0.0 mm 230 W/m2
08:59 11 °C 8 °C 1007.7 hPa WSW 12 km/h 26 km/h 82% 0.0 mm 336 W/m2
09:04 12 °C 8 °C 1007.7 hPa West 13 km/h 26 km/h 82% 0.0 mm 304 W/m2
09:09 12 °C 9 °C 1007.7 hPa WSW 12 km/h 18 km/h 81% 0.0 mm 278 W/m2
09:14 12 °C 9 °C 1007.7 hPa WSW 10 km/h 26 km/h 82% 0.0 mm 436 W/m2
09:19 12 °C 9 °C 1007.7 hPa WSW 14 km/h 26 km/h 82% 0.0 mm 640 W/m2
09:24 12 °C 9 °C 1007.6 hPa WSW 10 km/h 19 km/h 81% 0.0 mm 357 W/m2
09:29 12 °C 9 °C 1007.6 hPa WSW 10 km/h 16 km/h 80% 0.0 mm 214 W/m2
09:34 12 °C 9 °C 1007.6 hPa WSW 11 km/h 23 km/h 79% 0.0 mm 308 W/m2
09:39 12 °C 9 °C 1007.6 hPa WNW 12 km/h 23 km/h 79% 0.0 mm 281 W/m2
09:44 12 °C 9 °C 1007.6 hPa West 10 km/h 23 km/h 78% 0.0 mm 348 W/m2
09:49 12 °C 9 °C 1007.5 hPa WSW 14 km/h 24 km/h 78% 0.0 mm 357 W/m2
09:54 12 °C 9 °C 1007.5 hPa West 11 km/h 19 km/h 77% 0.0 mm 271 W/m2
09:59 12 °C 8 °C 1007.5 hPa West 11 km/h 21 km/h 77% 0.0 mm 255 W/m2
10:04 12 °C 9 °C 1007.5 hPa West 10 km/h 19 km/h 77% 0.0 mm 315 W/m2
10:09 13 °C 9 °C 1007.4 hPa West 15 km/h 31 km/h 76% 0.0 mm 566 W/m2
10:14 13 °C 8 °C 1007.4 hPa West 11 km/h 31 km/h 75% 0.0 mm 566 W/m2
10:19 13 °C 8 °C 1007.4 hPa WNW 11 km/h 23 km/h 74% 0.0 mm 311 W/m2
10:24 13 °C 8 °C 1007.5 hPa West 11 km/h 23 km/h 74% 0.0 mm 130 W/m2
10:29 13 °C 8 °C 1007.5 hPa WNW 11 km/h 19 km/h 76% 0.0 mm 79 W/m2
10:34 12 °C 8 °C 1007.5 hPa NW 11 km/h 23 km/h 79% 0.0 mm 176 W/m2
10:39 12 °C 8 °C 1007.5 hPa WNW 10 km/h 19 km/h 82% 0.0 mm 199 W/m2
10:44 12 °C 9 °C 1007.5 hPa WNW 8 km/h 23 km/h 83% 0.0 mm 216 W/m2
10:49 11 °C 9 °C 1007.5 hPa WNW 9 km/h 23 km/h 84% 0.0 mm 272 W/m2
10:54 12 °C 9 °C 1007.5 hPa West 8 km/h 19 km/h 84% 0.0 mm 350 W/m2
10:59 12 °C 9 °C 1007.5 hPa West 9 km/h 18 km/h 85% 0.0 mm 833 W/m2
11:04 12 °C 10 °C 1007.5 hPa WNW 14 km/h 21 km/h 85% 0.0 mm 1048 W/m2
11:09 13 °C 10 °C 1007.5 hPa WNW 12 km/h 21 km/h 81% 0.0 mm 1048 W/m2
11:14 13 °C 9 °C 1007.4 hPa WNW 13 km/h 19 km/h 78% 0.0 mm 246 W/m2
11:19 12 °C 8 °C 1007.4 hPa West 14 km/h 27 km/h 77% 0.0 mm 320 W/m2
11:24 12 °C 8 °C 1007.4 hPa West 11 km/h 24 km/h 78% 0.0 mm 338 W/m2
11:29 12 °C 9 °C 1007.4 hPa West 8 km/h 18 km/h 80% 0.0 mm 418 W/m2
11:34 13 °C 9 °C 1007.4 hPa West 9 km/h 16 km/h 80% 0.0 mm 605 W/m2
11:39 13 °C 9 °C 1007.2 hPa WSW 13 km/h 23 km/h 78% 0.0 mm 290 W/m2
11:44 13 °C 9 °C 1007.3 hPa West 12 km/h 27 km/h 78% 0.0 mm 455 W/m2
11:49 13 °C 9 °C 1007.3 hPa WNW 11 km/h 27 km/h 78% 0.0 mm 455 W/m2
11:54 13 °C 9 °C 1007.3 hPa West 12 km/h 26 km/h 76% 0.0 mm 1167 W/m2
11:59 13 °C 9 °C 1007.2 hPa West 13 km/h 21 km/h 75% 0.0 mm 1167 W/m2
12:04 13 °C 8 °C 1007.2 hPa WNW 13 km/h 26 km/h 72% 0.0 mm 130 W/m2
12:09 13 °C 8 °C 1007.3 hPa WNW 12 km/h 26 km/h 74% 0.0 mm 206 W/m2
12:14 12 °C 8 °C 1007.4 hPa WNW 10 km/h 26 km/h 77% 0.0 mm 292 W/m2
12:19 12 °C 8 °C 1007.4 hPa WNW 11 km/h 26 km/h 76% 0.0 mm 348 W/m2
12:24 12 °C 8 °C 1007.5 hPa WNW 12 km/h 26 km/h 75% 0.0 mm 338 W/m2
12:29 13 °C 8 °C 1007.4 hPa WNW 13 km/h 31 km/h 75% 0.0 mm 399 W/m2
12:34 13 °C 8 °C 1007.4 hPa WNW 10 km/h 31 km/h 75% 0.0 mm 401 W/m2
12:39 13 °C 9 °C 1007.4 hPa WNW 10 km/h 16 km/h 77% 0.0 mm 380 W/m2
12:44 13 °C 9 °C 1007.3 hPa West 9 km/h 18 km/h 77% 0.0 mm 475 W/m2
12:49 13 °C 9 °C 1007.4 hPa WNW 11 km/h 18 km/h 77% 0.0 mm 497 W/m2
12:54 13 °C 9 °C 1007.3 hPa WNW 11 km/h 19 km/h 75% 0.0 mm 424 W/m2
12:59 13 °C 9 °C 1007.3 hPa West 11 km/h 23 km/h 76% 0.0 mm 1069 W/m2
13:04 14 °C 9 °C 1007.2 hPa WNW 13 km/h 23 km/h 73% 0.0 mm 1034 W/m2
13:09 14 °C 9 °C 1007.2 hPa West 14 km/h 27 km/h 69% 0.0 mm 650 W/m2
13:14 14 °C 8 °C 1007.2 hPa WNW 12 km/h 21 km/h 68% 0.0 mm 650 W/m2
13:19 14 °C 9 °C 1007.2 hPa WNW 11 km/h 21 km/h 70% 0.0 mm 550 W/m2
13:24 14 °C 9 °C 1007.1 hPa WNW 10 km/h 19 km/h 71% 0.0 mm 459 W/m2
13:29 14 °C 9 °C 1007.1 hPa West 11 km/h 21 km/h 72% 0.0 mm 441 W/m2
13:34 14 °C 9 °C 1007.1 hPa West 9 km/h 19 km/h 72% 0.0 mm 578 W/m2
13:39 14 °C 9 °C 1007.1 hPa WNW 9 km/h 23 km/h 71% 0.0 mm 492 W/m2
13:44 14 °C 9 °C 1007.1 hPa WNW 7 km/h 13 km/h 73% 0.0 mm 701 W/m2
13:49 14 °C 9 °C 1007.0 hPa WNW 9 km/h 29 km/h 71% 0.0 mm 701 W/m2
13:54 15 °C 9 °C 1007.0 hPa WNW 14 km/h 19 km/h 68% 0.0 mm 578 W/m2
13:59 15 °C 8 °C 1007.0 hPa WNW 11 km/h 23 km/h 66% 0.0 mm 990 W/m2
14:04 15 °C 9 °C 1007.0 hPa WNW 11 km/h 26 km/h 68% 0.0 mm 1023 W/m2
14:09 16 °C 8 °C 1007.0 hPa WNW 14 km/h 34 km/h 62% 0.0 mm 366 W/m2
14:14 15 °C 8 °C 1007.0 hPa West 12 km/h 23 km/h 65% 0.0 mm 990 W/m2
14:19 16 °C 9 °C 1006.9 hPa West 12 km/h 23 km/h 67% 0.0 mm 1000 W/m2
14:24 15 °C 9 °C 1006.9 hPa WNW 13 km/h 31 km/h 65% 0.0 mm 309 W/m2
14:29 15 °C 8 °C 1007.0 hPa WNW 16 km/h 29 km/h 65% 0.0 mm 1079 W/m2
14:34 16 °C 9 °C 1007.1 hPa WNW 14 km/h 29 km/h 65% 0.0 mm 1032 W/m2
14:39 16 °C 8 °C 1007.1 hPa WNW 15 km/h 29 km/h 63% 0.0 mm 1034 W/m2
14:44 15 °C 8 °C 1007.1 hPa WNW 10 km/h 23 km/h 63% 0.0 mm 364 W/m2
14:49 14 °C 8 °C 1007.1 hPa WNW 11 km/h 23 km/h 65% 0.0 mm 369 W/m2
14:54 14 °C 8 °C 1007.1 hPa WNW 11 km/h 21 km/h 67% 0.0 mm 469 W/m2
14:59 14 °C 8 °C 1007.1 hPa WNW 11 km/h 19 km/h 68% 0.0 mm 538 W/m2
15:04 14 °C 9 °C 1007.1 hPa WNW 9 km/h 19 km/h 69% 0.0 mm 775 W/m2
15:09 16 °C 9 °C 1007.0 hPa WNW 10 km/h 19 km/h 66% 0.0 mm 1099 W/m2
15:14 16 °C 9 °C 1007.1 hPa WNW 13 km/h 23 km/h 64% 0.0 mm 1095 W/m2
15:19 16 °C 9 °C 1007.0 hPa WNW 10 km/h 23 km/h 64% 0.0 mm 1107 W/m2
15:24 17 °C 9 °C 1007.1 hPa WNW 11 km/h 21 km/h 63% 0.0 mm 1023 W/m2
15:29 17 °C 9 °C 1007.0 hPa WNW 11 km/h 24 km/h 62% 0.0 mm 1049 W/m2
15:34 16 °C 9 °C 1007.0 hPa NW 12 km/h 24 km/h 60% 0.0 mm 865 W/m2
15:39 16 °C 8 °C 1007.0 hPa WNW 14 km/h 24 km/h 61% 0.0 mm 918 W/m2
15:44 16 °C 9 °C 1006.9 hPa WNW 11 km/h 21 km/h 62% 0.0 mm 988 W/m2
15:49 16 °C 9 °C 1006.9 hPa WNW 13 km/h 27 km/h 60% 0.0 mm 972 W/m2
15:54 16 °C 8 °C 1007.0 hPa WNW 11 km/h 26 km/h 61% 0.0 mm 851 W/m2
15:59 16 °C 8 °C 1007.0 hPa West 15 km/h 27 km/h 62% 0.0 mm 851 W/m2
16:04 16 °C 8 °C 1006.9 hPa West 15 km/h 35 km/h 61% 0.0 mm 851 W/m2
16:09 16 °C 8 °C 1007.1 hPa WNW 13 km/h 21 km/h 62% 0.0 mm 468 W/m2
16:14 15 °C 8 °C 1007.2 hPa NW 15 km/h 31 km/h 62% 0.0 mm 385 W/m2
16:19 14 °C 7 °C 1007.2 hPa WNW 11 km/h 24 km/h 61% 0.0 mm 385 W/m2
16:24 14 °C 7 °C 1007.2 hPa WNW 9 km/h 18 km/h 62% 0.0 mm 267 W/m2
16:29 14 °C 7 °C 1007.1 hPa NW 7 km/h 16 km/h 64% 0.0 mm 297 W/m2
16:34 14 °C 8 °C 1007.1 hPa NW 8 km/h 16 km/h 65% 0.0 mm 323 W/m2
16:39 14 °C 8 °C 1007.0 hPa WNW 8 km/h 18 km/h 65% 0.0 mm 332 W/m2
16:44 14 °C 8 °C 1006.9 hPa WNW 6 km/h 13 km/h 66% 0.0 mm 234 W/m2
16:49 14 °C 8 °C 1006.9 hPa WNW 9 km/h 18 km/h 65% 0.0 mm 232 W/m2
16:54 14 °C 8 °C 1006.8 hPa WNW 8 km/h 19 km/h 65% 0.0 mm 221 W/m2
16:59 14 °C 7 °C 1006.8 hPa WNW 9 km/h 18 km/h 65% 0.0 mm 202 W/m2
17:04 14 °C 7 °C 1006.8 hPa WNW 8 km/h 14 km/h 65% 0.0 mm 188 W/m2
17:09 14 °C 7 °C 1006.8 hPa WNW 7 km/h 13 km/h 66% 0.0 mm 176 W/m2
17:14 14 °C 7 °C 1006.8 hPa NW 9 km/h 18 km/h 66% 0.0 mm 172 W/m2
17:19 14 °C 7 °C 1006.8 hPa WNW 8 km/h 21 km/h 66% 0.0 mm 199 W/m2
17:24 14 °C 8 °C 1006.8 hPa WNW 7 km/h 21 km/h 66% 0.0 mm 230 W/m2
17:29 14 °C 8 °C 1006.7 hPa WNW 7 km/h 13 km/h 67% 0.0 mm 244 W/m2
17:34 14 °C 8 °C 1006.7 hPa WNW 7 km/h 18 km/h 67% 0.0 mm 244 W/m2
17:39 14 °C 8 °C 1006.6 hPa WNW 9 km/h 21 km/h 66% 0.0 mm 207 W/m2
17:44 14 °C 7 °C 1006.6 hPa WNW 12 km/h 21 km/h 64% 0.0 mm 206 W/m2
17:49 14 °C 7 °C 1006.6 hPa WNW 11 km/h 19 km/h 65% 0.0 mm 209 W/m2
17:54 14 °C 8 °C 1006.6 hPa WNW 8 km/h 19 km/h 65% 0.0 mm 209 W/m2
17:59 14 °C 8 °C 1006.5 hPa WNW 6 km/h 16 km/h 66% 0.0 mm 167 W/m2
18:04 14 °C 8 °C 1006.4 hPa WNW 10 km/h 19 km/h 66% 0.0 mm 116 W/m2
18:09 14 °C 7 °C 1006.4 hPa WNW 10 km/h 23 km/h 65% 0.0 mm 118 W/m2
18:14 13 °C 7 °C 1006.4 hPa WNW 8 km/h 18 km/h 65% 0.0 mm 125 W/m2
18:19 13 °C 7 °C 1006.4 hPa WNW 9 km/h 19 km/h 66% 0.0 mm 132 W/m2
18:24 13 °C 7 °C 1006.4 hPa WNW 10 km/h 21 km/h 66% 0.0 mm 134 W/m2
18:29 13 °C 8 °C 1006.4 hPa West 10 km/h 21 km/h 68% 0.0 mm 139 W/m2
18:34 13 °C 8 °C 1006.4 hPa West 10 km/h 18 km/h 71% 0.0 mm 171 W/m2
18:39 13 °C 8 °C 1006.3 hPa WSW 9 km/h 16 km/h 72% 0.0 mm 206 W/m2
18:44 13 °C 8 °C 1006.3 hPa WSW 5 km/h 14 km/h 72% 0.0 mm 171 W/m2
18:49 13 °C 8 °C 1006.3 hPa WSW 9 km/h 14 km/h 72% 0.0 mm 144 W/m2
18:54 13 °C 8 °C 1006.3 hPa WSW 7 km/h 13 km/h 71% 0.0 mm 137 W/m2
18:59 13 °C 8 °C 1006.3 hPa West 8 km/h 14 km/h 71% 0.0 mm 127 W/m2
19:04 13 °C 8 °C 1006.4 hPa WSW 8 km/h 14 km/h 71% 0.0 mm 109 W/m2
19:09 13 °C 8 °C 1006.4 hPa WSW 8 km/h 16 km/h 72% 0.0 mm 60 W/m2
19:14 13 °C 8 °C 1006.4 hPa West 7 km/h 14 km/h 72% 0.0 mm 53 W/m2
19:19 13 °C 8 °C 1006.5 hPa WNW 10 km/h 19 km/h 72% 0.0 mm 46 W/m2
19:24 12 °C 7 °C 1006.6 hPa WNW 11 km/h 19 km/h 71% 0.0 mm 37 W/m2
19:29 12 °C 7 °C 1006.6 hPa WNW 11 km/h 24 km/h 71% 0.0 mm 32 W/m2
19:34 12 °C 7 °C 1006.7 hPa WNW 10 km/h 21 km/h 72% 0.0 mm 19 W/m2
19:39 12 °C 7 °C 1006.8 hPa WNW 11 km/h 23 km/h 73% 0.0 mm 16 W/m2
19:44 11 °C 7 °C 1006.8 hPa NW 7 km/h 18 km/h 74% 0.0 mm 19 W/m2
19:49 11 °C 7 °C 1006.8 hPa WNW 7 km/h 13 km/h 76% 0.0 mm 21 W/m2
19:54 11 °C 7 °C 1006.8 hPa NW 7 km/h 14 km/h 78% 0.0 mm 21 W/m2
19:59 11 °C 7 °C 1006.9 hPa WNW 6 km/h 13 km/h 80% 0.0 mm 14 W/m2
20:04 10 °C 7 °C 1006.9 hPa WNW 6 km/h 13 km/h 81% 0.0 mm 11 W/m2
20:09 10 °C 7 °C 1007.0 hPa WNW 4 km/h 11 km/h 82% 0.0 mm 9 W/m2
20:14 10 °C 7 °C 1007.0 hPa NW 4 km/h 11 km/h 82% 0.0 mm 7 W/m2
20:19 10 °C 7 °C 1007.0 hPa NW 4 km/h 10 km/h 83% 0.0 mm 7 W/m2
20:24 10 °C 7 °C 1007.0 hPa WNW 2 km/h 10 km/h 84% 0.0 mm 5 W/m2
20:29 10 °C 7 °C 1006.9 hPa NW 5 km/h 10 km/h 85% 0.0 mm 0 W/m2
20:34 9 °C 7 °C 1006.8 hPa NW 4 km/h 8 km/h 85% 0.0 mm 0 W/m2
20:39 9 °C 7 °C 1006.8 hPa NW 3 km/h 10 km/h 85% 0.0 mm 5 W/m2
20:44 9 °C 7 °C 1006.7 hPa NW 4 km/h 10 km/h 86% 0.0 mm 5 W/m2
20:49 9 °C 7 °C 1006.6 hPa NW 5 km/h 10 km/h 86% 0.0 mm 5 W/m2
20:54 9 °C 7 °C 1006.5 hPa WNW 3 km/h 10 km/h 86% 0.0 mm 5 W/m2
20:59 9 °C 7 °C 1006.5 hPa WNW 2 km/h 10 km/h 86% 0.0 mm 0 W/m2
21:04 9 °C 7 °C 1006.3 hPa NW 3 km/h 10 km/h 85% 0.0 mm 0 W/m2
21:09 9 °C 7 °C 1006.3 hPa NW 3 km/h 10 km/h 85% 0.0 mm 0 W/m2
21:14 9 °C 7 °C 1006.3 hPa NW 2 km/h 8 km/h 85% 0.0 mm 0 W/m2
21:19 9 °C 7 °C 1006.3 hPa NW 1 km/h 3 km/h 85% 0.0 mm 0 W/m2
21:24 9 °C 7 °C 1006.4 hPa NW 3 km/h 8 km/h 86% 0.0 mm 0 W/m2
21:29 9 °C 7 °C 1006.4 hPa NW 2 km/h 8 km/h 86% 0.0 mm 0 W/m2
21:34 9 °C 7 °C 1006.5 hPa NW 2 km/h 8 km/h 86% 0.0 mm 0 W/m2
21:39 9 °C 7 °C 1006.4 hPa NW 1 km/h 8 km/h 87% 0.0 mm 0 W/m2
21:44 9 °C 7 °C 1006.5 hPa NW 2 km/h 5 km/h 87% 0.0 mm 0 W/m2
21:49 9 °C 7 °C 1006.6 hPa NW 2 km/h 10 km/h 87% 0.0 mm 0 W/m2
21:54 9 °C 7 °C 1006.6 hPa WNW 2 km/h 10 km/h 88% 0.0 mm 0 W/m2
21:59 9 °C 7 °C 1006.5 hPa WNW 1 km/h 6 km/h 88% 0.0 mm 0 W/m2
22:04 9 °C 7 °C 1006.5 hPa WNW 3 km/h 6 km/h 89% 0.0 mm 0 W/m2
22:09 9 °C 7 °C 1006.5 hPa WNW 1 km/h 5 km/h 89% 0.0 mm 0 W/m2
22:14 9 °C 7 °C 1006.4 hPa WNW 1 km/h 6 km/h 89% 0.0 mm 0 W/m2
22:19 8 °C 7 °C 1006.4 hPa Calm   5 km/h 89% 0.0 mm 0 W/m2
22:24 8 °C 7 °C 1006.4 hPa Calm     89% 0.0 mm 0 W/m2
22:29 8 °C 7 °C 1006.4 hPa Calm     89% 0.0 mm 0 W/m2
22:34 8 °C 7 °C 1006.5 hPa Calm     89% 0.0 mm 0 W/m2
22:39 8 °C 7 °C 1006.5 hPa Calm     89% 0.0 mm 0 W/m2
22:44 8 °C 7 °C 1006.5 hPa Calm     89% 0.0 mm 0 W/m2
22:49 8 °C 6 °C 1006.5 hPa Calm     89% 0.0 mm 0 W/m2
22:54 8 °C 6 °C 1006.5 hPa Calm     90% 0.0 mm 0 W/m2
22:59 8 °C 6 °C 1006.5 hPa Calm     90% 0.0 mm 0 W/m2
23:04 8 °C 6 °C 1006.5 hPa Calm     90% 0.0 mm 0 W/m2
23:09 8 °C 6 °C 1006.4 hPa Calm     90% 0.0 mm 0 W/m2
23:14 8 °C 6 °C 1006.4 hPa WNW 1 km/h 6 km/h 90% 0.0 mm 0 W/m2
23:19 8 °C 7 °C 1006.4 hPa WNW 1 km/h 6 km/h 91% 0.0 mm 0 W/m2
23:24 8 °C 7 °C 1006.4 hPa Calm   3 km/h 91% 0.0 mm 0 W/m2
23:29 8 °C 7 °C 1006.4 hPa Calm     91% 0.0 mm 0 W/m2
23:34 8 °C 7 °C 1006.4 hPa Calm     91% 0.0 mm 0 W/m2
23:39 8 °C 7 °C 1006.5 hPa Calm     91% 0.0 mm 0 W/m2
23:44 8 °C 7 °C 1006.6 hPa Calm     91% 0.0 mm 0 W/m2
23:49 8 °C 7 °C 1006.6 hPa Calm     91% 0.0 mm 0 W/m2
23:54 8 °C 7 °C 1006.6 hPa Calm     91% 0.0 mm 0 W/m2
23:59 8 °C 7 °C 1006.6 hPa Calm     91% 0.0 mm 0 W/m2
Compliments of Weather Underground - 4.25 mb